Погода в Матросах

Россия / Республика Карелия     61°46′52″N   33°48′46″E
темп.,
°C
ветер,
м/с
пор.,
м/с
влажн.,
%
обл.,
%
осадки,
мм/ч
давл.,
гПа
погр.,
м
8 марта, пн
пн800:00−11ссв51392100 0.6 999676
03:00−13ссв51293100 0.7 1003580
06:00−16ссв31296100 0.1 1005462
09:00−18ссв41096100 0.1 1008358
12:00−16ссв3793100 0.0 1011404
15:00−15ссв4791100 0.1 1012514
18:00−17с389599 0.0 1014375
21:00−22ссв299894 0.1 1017253
9 марта, вт
вт900:00−26ссв239932 0.0 101885
03:00−29ссв239931 0.0 102086
06:00−30св239927 0.0 102179
09:00−28св259722 0.0 1023169
12:00−22св24910 0.0 1024295
15:00−17ссв23810 0.0 1025401
18:00−20с12930 0.0 102620
21:00−23ссз119211 0.0 102720
10 марта, ср
ср1000:00−23з228926 0.0 102820
03:00−23з238939 0.0 102840
06:00−23зсз238787 0.0 102943
09:00−19зсз238492 0.0 1029106
12:00−12зсз247873 0.0 1029265
15:00−9зсз248357 0.0 1030405
18:00−12зсз22910 0.0 102923
21:00−17з12910 0.0 103020
11 марта, чт
чт1100:00−19з12880 0.0 103020
03:00−20юз12810 0.0 103020
06:00−20ююз22780 0.0 102920
09:00−16ююз36830 0.0 1028178
12:00−10ююз38770 0.0 1026388
15:00−8ююз410760 0.0 1023770
18:00−10ю411860 0.0 1020589
21:00−11ююз514860 0.0 1018545
12 марта, пт
пт1200:00−11ююз4139158 0.0 1016476
03:00−12ю4139156 0.0 1014393
06:00−13ю5139030 0.0 1012389
09:00−11ю5138315 0.0 1009516
12:00−6ю513810 0.0 1007675
15:00−4ю512810 0.0 1005846
18:00−5ю5118994 0.1 10031013
21:00−8ююв4129094 0.2 1002692